Weather History for Wolf Point, MT

Change the Weather History Date:

Sunday, February 17, 2013

  Actual Average Record
Temperature  
Mean Temperature 29 °F -  
Max Temperature 36 °F 31 °F 55 °F (2002)
Min Temperature 22 °F 6 °F -18 °F (2001)
Degree Days  
Heating Degree Days 36    
Cooling Degree Days 0    
Moisture  
Dew Point 26 °F    
Average Humidity 82    
Maximum Humidity 96    
Minimum Humidity 74    
Precipitation  
Precipitation T in 0.01 in 0.05 in (2011)
Month to date precipitation 0.09 0.09  
Year to date precipitation 0.20 0.40  
Sea Level Pressure  
Sea Level Pressure 29.69 in    
Wind  
Wind Speed 10 mph (NW)    
Max Wind Speed 25 mph    
Max Gust Speed 37 mph    
Visibility 9 miles    
Events Snow    
T = Trace of Precipitation, MM = Missing Value Source: NWS Daily Summary

Daily Weather History Graph

Daily Weather History Graph

Search for Another Location

Airport:

Trip Planner

Search our weather history database for the weather conditions in past years. The results will help you decide how hot, cold, wet, or windy it might be!

Date:

Astronomy

Feb. 17, 2013 Rise Set
Actual Time 7:04 AM MST 5:28 PM MST
Civil Twilight 6:33 AM MST 6:00 PM MST
Nautical Twilight 5:56 AM MST 6:36 PM MST
Astronomical Twilight 5:20 AM MST 7:12 PM MST
Moon 10:23 AM MST (2/17) 1:01 AM MST (2/17)
Length of Visible Light 11h 27m
Length of Day
10h 23m
Waxing Crescent, 49% of the Moon is Illuminated
Feb 17
Waxing Crescent
Feb 17
First Quarter
Feb 25
Full
Mar 4
Last Quarter
Mar 11
New

Hourly Weather History & Observations

Time (MST) Temp. Windchill Dew Point Humidity Pressure Visibility Wind Dir Wind Speed Gust Speed Precip Events Conditions
12:53 AM 23.0 °F - 21.9 °F 96% 29.68 in 10.0 mi Calm Calm - N/A   Clear
1:53 AM 24.1 °F - 23.0 °F 96% 29.66 in 10.0 mi Calm Calm - N/A   Clear
2:53 AM 23.0 °F - 21.0 °F 92% 29.64 in 10.0 mi Calm Calm - N/A   Clear
3:53 AM 28.0 °F 20.8 °F 25.0 °F 88% 29.62 in 10.0 mi West 6.9 mph - N/A   Scattered Clouds
4:53 AM 28.0 °F 20.0 °F 26.1 °F 92% 29.60 in 10.0 mi SW 8.1 mph - N/A   Overcast
5:53 AM 33.1 °F 25.5 °F 28.0 °F 82% 29.59 in 10.0 mi WSW 9.2 mph - N/A   Mostly Cloudy
6:53 AM 30.9 °F - 27.0 °F 85% 29.59 in 10.0 mi Calm Calm - N/A   Mostly Cloudy
7:53 AM 28.9 °F 21.9 °F 26.1 °F 89% 29.59 in 10.0 mi WSW 6.9 mph - N/A   Clear
8:53 AM 34.0 °F 26.6 °F 28.0 °F 79% 29.58 in 10.0 mi West 9.2 mph - N/A   Clear
9:53 AM 35.1 °F 24.8 °F 28.9 °F 78% 29.58 in 10.0 mi West 17.3 mph - N/A   Clear
10:43 AM 35.6 °F 26.6 °F 30.2 °F 81% 29.53 in 10.0 mi West 13.8 mph - N/A   Overcast
10:53 AM 35.6 °F 27.1 °F 30.2 °F 81% 29.54 in 10.0 mi WNW 12.7 mph - N/A   Overcast
11:53 AM 35.1 °F 24.5 °F 28.0 °F 76% 29.62 in 9.0 mi WNW 18.4 mph - N/A   Overcast
12:44 PM 35.6 °F 25.9 °F 28.4 °F 75% 29.55 in 10.0 mi WNW 16.1 mph - N/A   Overcast
12:53 PM 36.0 °F 25.0 °F 28.9 °F 76% 29.62 in 10.0 mi WNW 20.7 mph 25.3 mph N/A   Overcast
1:46 PM 35.6 °F 25.9 °F 30.2 °F 81% 29.57 in 10.0 mi NW 16.1 mph 24.2 mph N/A   Overcast
1:53 PM 36.0 °F 27.5 °F 30.9 °F 82% 29.65 in 10.0 mi NW 12.7 mph - N/A   Overcast
2:19 PM 35.6 °F 25.5 °F 30.2 °F 81% 29.58 in 10.0 mi NW 17.3 mph 28.8 mph N/A   Overcast
2:53 PM 34.0 °F 24.2 °F 30.9 °F 89% 29.68 in 3.0 mi NW 15.0 mph 27.6 mph 0.00 in Snow Light Snow
3:53 PM 34.0 °F 23.4 °F 30.0 °F 85% 29.70 in 4.0 mi NW 17.3 mph 28.8 mph 0.00 in Snow Light Snow
4:03 PM 33.8 °F 23.2 °F 30.2 °F 87% 29.64 in 2.5 mi NW 17.3 mph 26.5 mph 0.00 in Snow Light Snow
4:35 PM 33.8 °F 22.5 °F 30.2 °F 87% 29.67 in 6.0 mi NW 19.6 mph 24.2 mph 0.00 in   Overcast
4:53 PM 34.0 °F 23.8 °F 28.9 °F 82% 29.75 in 10.0 mi NW 16.1 mph 24.2 mph 0.00 in   Overcast
5:25 PM 33.8 °F 22.5 °F 28.4 °F 81% 29.69 in 10.0 mi NW 19.6 mph - N/A   Overcast
5:53 PM 34.0 °F 22.4 °F 28.9 °F 82% 29.78 in 10.0 mi NW 20.7 mph - N/A   Overcast
6:53 PM 30.9 °F 17.2 °F 24.1 °F 76% 29.83 in 10.0 mi NNW 25.3 mph 36.8 mph N/A   Overcast
7:32 PM 28.4 °F 15.1 °F 23.0 °F 80% 29.80 in 10.0 mi NNW 20.7 mph 28.8 mph N/A   Overcast
7:53 PM 28.0 °F 14.3 °F 21.0 °F 75% 29.89 in 10.0 mi NNW 21.9 mph 31.1 mph N/A   Overcast
8:27 PM 26.6 °F 12.7 °F 19.4 °F 74% 29.84 in 10.0 mi NNW 20.7 mph 32.2 mph N/A   Mostly Cloudy
8:53 PM 25.0 °F 11.7 °F 18.0 °F 75% 29.94 in 10.0 mi NNW 17.3 mph - N/A   Overcast
10:53 PM 24.1 °F 13.1 °F 17.1 °F 75% 30.00 in 10.0 mi North 11.5 mph 20.7 mph N/A   Overcast
11:53 PM 23.0 °F 12.4 °F 17.1 °F 78% 30.03 in 7.0 mi NW 10.4 mph - N/A   Overcast